Regional Weather Roundup
Issued by NWS Portland, ME

Current Version | Previous Version | Graphics & Text | Print | Product List | Glossary On
Versions: 1 2 3 4 5 6 7 8 9 10 11 12 13 14 15 16 17 18 19 20 21 22 23 24 25 26 27 28 29 30 31 32 33 34 35 36 37 38 39 40 41 42 43 44 45 46 47 48 49 50
863
ASUS41 KGYX 251710
RWRGYX
WEATHER ROUNDUP FOR MAINE AND NEW HAMPSHIRE
NATIONAL WEATHER SERVICE GRAY ME
100 PM EDT WED APR 25 2018

MEZ002-005-006-010-012-015-018-020-021-024-026-027-029-251800-
MAINE

CITY           SKY/WX    TMP DP  RH WIND       PRES   REMARKS
PORTLAND       LGT RAIN  50  48  93 E10       30.08F
SANFORD        LGT RAIN  51  49  92 VRB5      30.04F
BAR HARBOR     CLOUDY    52  44  74 SW6       30.16F
WISCASSET      CLOUDY    55  48  77 S8        30.11F
ROCKLAND       LGT RAIN  48  45  89 E8        30.13F
FRYEBURG       LGT RAIN  54  52  93 E3        30.05F
LEWISTONAUBURN LGT RAIN  54  50  86 SE7       30.08F
AUGUSTA        CLOUDY    53  48  83 S6        30.09F
WATERVILLE     LGT RAIN  53  51  93 VRB5      30.08F
BANGOR         CLOUDY    57  45  64 S15       30.12F
GREENVILLE       N/A     53  41  63 S10G18    30.05F
MILLINOCKET    CLOUDY    64  42  44 S12G20    30.08F
HOULTON        PTSUNNY   61  42  49 S13G23    30.07F
PRESQUE ISLE   FAIR      59  34  39 S9        30.06F
FRENCHVILLE    PTSUNNY   51  33  50 SE9       30.03F
CARIBOU        FAIR      56  36  47 MISG      30.05F
$$

NHZ002-005-008-009-011-012-014-251800-
NEW HAMPSHIRE

CITY           SKY/WX    TMP DP  RH WIND       PRES   REMARKS
PORTSMOUTH     LGT RAIN  50  49  96 E12       30.02F FOG
ROCHESTER      LGT RAIN  54  52  93 SE12G20   30.02F
NASHUA         LGT RAIN  56  55  97 E9        29.97F
MANCHESTER     LGT RAIN  57  53  86 E7        29.97F
CONCORD        CLOUDY    56  54  93 VRB7      29.99F
LACONIA        LGT RAIN  51  50  96 NE9       30.01F
PLYMOUTH       LGT RAIN  51  49  93 E5        30.00F
BERLIN         LGT RAIN  54  47  77 S9        30.02F
WHITEFIELD     CLOUDY    57  48  72 SE12G22   29.99F
JAFFREY        CLOUDY    53  52  96 VRB3      29.95F FOG
KEENE          CLOUDY    56  52  86 CALM      29.93F
LEBANON        LGT RAIN  52  47  83 NE6       29.96F
MT WASHINGTON  LGT RAIN  34  34 100 SE60        N/A  VSB 0   WCI  16
$$

VTZ005-007-008-251800-
VERMONT

CITY           SKY/WX    TMP DP  RH WIND       PRES   REMARKS
ST JOHNSBURY     N/A     54  50  86 MISG      29.96F
MONTPELIER     LGT RAIN  51  50  96 SE7       29.99F
BURLINGTON     LGT RAIN  58  50  75 E9        29.92F
$$

MAZ007-012-024-CTZ003-RIZ002-NYZ038-NYZ072-251800-
SOUTHERN NEW ENGLAND AND NY

CITY           SKY/WX    TMP DP  RH WIND       PRES   REMARKS
BOSTON         LGT RAIN  52  50  93 E14       29.98F
WORCESTER      LGT RAIN  53  52  96 SE14G21   29.93F VSB 1/4
NANTUCKET      LGT RAIN  51  51 100 SE21      29.99F FOG
PROVIDENCE     RAIN      55  55 100 SE16      29.94F FOG
HARTFORD       LGT RAIN  58  57  97 SE5       29.87F FOG
ALBANY         LGT RAIN  54  51  90 N3        29.87F FOG
NEW YORK CITY  CLOUDY    61  57  87 SE18G24   29.77F FOG
$$

ANZ081-ANZ082-ANZ150-NHZ014-MEZ023>029-251800-
COASTAL MARINE OBSERVATIONS

STATION/POSITION TIME  TEMP    WIND        PRES    WAVE
                       AIR SEA DIR/SP/G            HT/PER
                 (UTC) (F)     (DEG/KT/KT) (MB)    (FT/S)
MOUNT DESERT ROC 1700   45     120/ 15/ 15 1020.8F
MATINICUS ROCK   1700   48     120/ 10/ 10 1019.5F
ISLE OF SHOALS   1700   47     110/ 14/ 14 1016.3F
JEFFREYS LEDGE   1636      43                N/A     3/ 4
CASHES LEDGE BUO 1650   48 42              1019.1F   2/ 4
$$

.............KEY..............
   WCI - WIND CHILL
   TC  - TEMPERATURE IN CELSIUS
   VSB - VISIBILITY IN MILES
   HX  - HEAT INDEX
   FAIR- INDICATES FEW OR NO CLOUDS BELOW 12,000 FT, WITH NO
         SIGNIFICANT WEATHER AND/OR OBSTRUCTIONS TO VISIBILITY.






USA.gov is the U.S. government's official web portal to all federal, state and local government web resources and services.